Location: Newark
(35.2672°N, 80.7344°W)
Time: 02:35:10
(UTC+00:00)

SR - Pass Details

Date: 02 February 2020
Orbit: 575 x 880 km, 66.7° (Epoch: 26 February)

Event Time Altitude Azimuth Distance (km) Brightness Sun altitude
Exits shadow 11:18:08 10° 324° (NW) 2,366 ? -13.3°
Reaches altitude 10° 11:18:14 10° 324° (NW) 2,328 ? -13.3°
Maximum altitude 11:23:23 53° 248° (WSW) 893 ? -12.3°
Drops below altitude 10° 11:28:04 10° 172° (S) 2,116 ? -11.3°
Sets 11:30:19 0° 168° (SSE) 2,980 ? -10.9°
